DLH241 EGLL-EDDF

Flight info

Callsign DLH241
Flight time N/A
Altitude 35000
Route BPK Q295 MATCH DCT REDFA DCT TACHA DCT NOLRU DCT DIXAT DIXAT1A
Aircraft A20N/M-SDE2E3FGHIRWXY/LB1

Departure

Time 2026-05-07 18:08
Airport London Heathrow Airport (EGLL)

Arrival

Time N/A
Airport Frankfurt Main Airport (EDDF)
Time Latitude Longitude Altitude Speed Heading
2026-05-07 17:39 51.46819 -0.45046 89 ft 0 kts 358°
2026-05-07 17:53 51.46811 -0.45046 86 ft 1 kts 358°
2026-05-07 17:54 51.46805 -0.45046 86 ft 2 kts 358°
2026-05-07 17:54 51.46791 -0.45045 85 ft 2 kts 355°
2026-05-07 17:54 51.46778 -0.45042 85 ft 2 kts 340°
2026-05-07 17:54 51.46767 -0.45034 86 ft 2 kts 321°
2026-05-07 17:55 51.46758 -0.45018 88 ft 2 kts 278°
2026-05-07 17:55 51.46758 -0.45012 87 ft 0 kts 274°
2026-05-07 17:58 51.46757 -0.45016 87 ft 2 kts 270°
2026-05-07 17:58 51.46752 -0.45081 85 ft 9 kts 267°
2026-05-07 17:58 51.46751 -0.45212 85 ft 14 kts 269°
2026-05-07 17:58 51.46719 -0.45373 88 ft 16 kts 207°
2026-05-07 17:59 51.46662 -0.45521 82 ft 19 kts 269°
2026-05-07 17:59 51.46661 -0.45751 81 ft 21 kts 270°
2026-05-07 17:59 51.46659 -0.45975 86 ft 18 kts 269°
2026-05-07 17:59 51.46659 -0.46187 86 ft 20 kts 271°
2026-05-07 18:00 51.46659 -0.46410 88 ft 20 kts 271°
2026-05-07 18:00 51.46658 -0.46621 91 ft 20 kts 271°
2026-05-07 18:00 51.46657 -0.46861 90 ft 23 kts 269°
2026-05-07 18:00 51.46657 -0.47141 87 ft 27 kts 270°
2026-05-07 18:01 51.46657 -0.47450 81 ft 28 kts 270°
2026-05-07 18:01 51.46656 -0.47753 84 ft 27 kts 270°
2026-05-07 18:01 51.46653 -0.48053 85 ft 24 kts 269°
2026-05-07 18:01 51.46654 -0.48281 86 ft 18 kts 275°
2026-05-07 18:02 51.46654 -0.48376 87 ft 0 kts 269°
2026-05-07 18:03 51.46653 -0.48400 87 ft 5 kts 262°
2026-05-07 18:03 51.46627 -0.48468 89 ft 8 kts 211°
2026-05-07 18:04 51.46593 -0.48470 90 ft 0 kts 179°
2026-05-07 18:05 51.46588 -0.48470 89 ft 3 kts 179°
2026-05-07 18:06 51.46534 -0.48469 88 ft 13 kts 179°
2026-05-07 18:06 51.46471 -0.48419 89 ft 4 kts 92°
2026-05-07 18:06 51.46478 -0.48357 87 ft 11 kts 88°
2026-05-07 18:06 51.46480 -0.48206 86 ft 17 kts 90°
2026-05-07 18:07 51.46480 -0.48153 85 ft 0 kts 90°
2026-05-07 18:07 51.46480 -0.47911 83 ft 56 kts 90°
2026-05-07 18:08 51.46481 -0.46905 87 ft 120 kts 89°
2026-05-07 18:08 51.46492 -0.45312 150 ft 161 kts 90°
2026-05-07 18:08 51.46543 -0.43401 466 ft 180 kts 90°
2026-05-07 18:08 51.46611 -0.41317 963 ft 201 kts 78°
2026-05-07 18:09 51.47276 -0.39166 1432 ft 231 kts 56°
2026-05-07 18:09 51.48306 -0.37013 2221 ft 252 kts 52°
2026-05-07 18:09 51.49444 -0.34816 3283 ft 258 kts 50°
2026-05-07 18:09 51.50613 -0.32592 4442 ft 263 kts 50°
2026-05-07 18:10 51.51741 -0.30220 4664 ft 267 kts 57°
2026-05-07 18:10 51.52590 -0.27575 4782 ft 267 kts 66°
2026-05-07 18:10 51.53308 -0.24814 4918 ft 268 kts 68°
2026-05-07 18:10 51.53975 -0.22019 5024 ft 269 kts 70°
2026-05-07 18:11 51.54709 -0.19267 5124 ft 269 kts 56°
2026-05-07 18:11 51.55543 -0.17787 5250 ft 272 kts 37°
2026-05-07 18:11 51.57904 -0.16376 5690 ft 272 kts
2026-05-07 18:11 51.59783 -0.16274 5810 ft 271 kts
2026-05-07 18:12 51.61665 -0.15956 5916 ft 272 kts
2026-05-07 18:12 51.63539 -0.15578 6019 ft 272 kts
2026-05-07 18:12 51.65413 -0.15144 6030 ft 272 kts 11°
2026-05-07 18:12 51.67239 -0.14321 6024 ft 273 kts 16°
2026-05-07 18:13 51.69066 -0.13443 6039 ft 275 kts 15°
2026-05-07 18:13 51.70905 -0.12577 6377 ft 277 kts 15°
2026-05-07 18:13 51.72764 -0.11676 7272 ft 280 kts 20°
2026-05-07 18:13 51.74393 -0.09946 8322 ft 287 kts 47°
2026-05-07 18:14 51.75434 -0.07192 9334 ft 291 kts 73°
2026-05-07 18:14 51.75828 -0.03976 10335 ft 296 kts 85°
2026-05-07 18:14 51.76034 -0.00561 10872 ft 317 kts 87°
2026-05-07 18:14 51.76232 0.03119 11300 ft 340 kts 86°
2026-05-07 18:15 51.76481 0.06965 12106 ft 347 kts 85°
2026-05-07 18:15 51.76773 0.10865 13068 ft 351 kts 84°
2026-05-07 18:15 51.77088 0.14796 13997 ft 356 kts 84°
2026-05-07 18:15 51.77416 0.18790 14762 ft 362 kts 84°
2026-05-07 18:16 51.77747 0.22846 15545 ft 367 kts 84°
2026-05-07 18:16 51.78212 0.26937 16291 ft 374 kts 77°
2026-05-07 18:16 51.78876 0.31023 17073 ft 379 kts 76°
2026-05-07 18:16 51.79533 0.35119 17816 ft 384 kts 76°
2026-05-07 18:17 51.80203 0.39319 18552 ft 388 kts 76°
2026-05-07 18:17 51.80879 0.43569 19228 ft 392 kts 76°
2026-05-07 18:17 51.81560 0.47862 19900 ft 396 kts 76°
2026-05-07 18:17 51.82248 0.52205 20567 ft 401 kts 76°
2026-05-07 18:18 51.82939 0.56590 21212 ft 405 kts 76°
2026-05-07 18:18 51.83637 0.61025 21878 ft 409 kts 76°
2026-05-07 18:18 51.84340 0.65506 22501 ft 414 kts 76°
2026-05-07 18:18 51.85050 0.70042 23139 ft 418 kts 76°
2026-05-07 18:19 51.85766 0.74631 23737 ft 422 kts 76°
2026-05-07 18:19 51.86486 0.79260 24273 ft 426 kts 76°
2026-05-07 18:19 51.87210 0.83925 24829 ft 429 kts 76°
2026-05-07 18:19 51.87936 0.88615 25359 ft 432 kts 76°
2026-05-07 18:20 51.88666 0.93353 25871 ft 435 kts 76°
2026-05-07 18:20 51.89400 0.98122 26375 ft 438 kts 76°
2026-05-07 18:20 51.90138 1.02936 26863 ft 442 kts 76°
2026-05-07 18:20 51.90877 1.07771 27334 ft 445 kts 76°
2026-05-07 18:21 51.91623 1.12664 27810 ft 448 kts 76°
2026-05-07 18:21 51.92369 1.17573 28268 ft 450 kts 76°
2026-05-07 18:21 51.93118 1.22514 28704 ft 453 kts 77°
2026-05-07 18:21 51.93871 1.27496 29125 ft 456 kts 77°
2026-05-07 18:22 51.94625 1.32503 29531 ft 459 kts 77°
2026-05-07 18:22 51.95127 1.35846 29802 ft 461 kts 77°
2026-05-07 18:22 51.96132 1.42563 30310 ft 465 kts 77°
2026-05-07 18:22 51.96893 1.47668 30659 ft 467 kts 77°
2026-05-07 18:23 51.97658 1.52808 31008 ft 469 kts 77°
2026-05-07 18:23 51.98421 1.57958 31397 ft 471 kts 77°
2026-05-07 18:23 51.99184 1.63124 31839 ft 470 kts 77°
2026-05-07 18:23 51.99942 1.68278 32303 ft 469 kts 77°
2026-05-07 18:24 52.00698 1.73429 32761 ft 469 kts 77°
2026-05-07 18:24 52.01449 1.78567 33204 ft 468 kts 77°
2026-05-07 18:24 52.02197 1.83705 33647 ft 467 kts 77°
2026-05-07 18:24 52.02944 1.88843 34066 ft 467 kts 77°
2026-05-07 18:25 52.03686 1.93971 34418 ft 466 kts 77°
2026-05-07 18:25 52.04426 1.99101 34741 ft 466 kts 77°
2026-05-07 18:25 52.05162 2.04224 34940 ft 466 kts 77°
2026-05-07 18:26 52.06627 2.14462 35082 ft 464 kts 77°
2026-05-07 18:26 52.08070 2.24620 35080 ft 464 kts 78°
2026-05-07 18:27 52.09511 2.34838 35083 ft 464 kts 78°
2026-05-07 18:27 52.10946 2.45065 35083 ft 464 kts 78°
2026-05-07 18:28 52.12525 2.55221 35079 ft 464 kts 73°
2026-05-07 18:28 52.14531 2.65224 35088 ft 464 kts 72°
2026-05-07 18:29 52.16492 2.75236 35093 ft 464 kts 73°
2026-05-07 18:29 52.18398 2.85290 35097 ft 464 kts 73°
2026-05-07 18:30 52.20282 2.95346 35098 ft 464 kts 73°
2026-05-07 18:30 52.22159 3.05415 35098 ft 463 kts 73°
2026-05-07 18:31 52.24013 3.15421 35099 ft 463 kts 75°
2026-05-07 18:31 52.24614 3.20620 35102 ft 461 kts 86°
2026-05-07 18:31 52.24590 3.25758 35096 ft 459 kts 98°
2026-05-07 18:31 52.23965 3.30842 35090 ft 456 kts 109°
2026-05-07 18:32 52.22855 3.35683 35087 ft 454 kts 113°
2026-05-07 18:32 52.20557 3.45275 35088 ft 455 kts 113°
2026-05-07 18:33 52.18258 3.54873 35082 ft 455 kts 113°
2026-05-07 18:33 52.15945 3.64468 35084 ft 455 kts 113°
2026-05-07 18:34 52.13622 3.74053 35082 ft 455 kts 113°
2026-05-07 18:34 52.11288 3.83646 35080 ft 456 kts 113°
2026-05-07 18:35 52.08944 3.93234 35079 ft 456 kts 113°
2026-05-07 18:35 52.06606 4.02758 35073 ft 456 kts 113°
2026-05-07 18:36 52.04245 4.12334 35077 ft 457 kts 114°
2026-05-07 18:36 52.01871 4.21918 35079 ft 457 kts 114°
2026-05-07 18:37 51.99488 4.31499 35080 ft 457 kts 114°
2026-05-07 18:37 51.97098 4.41066 35085 ft 458 kts 114°
2026-05-07 18:38 51.94697 4.50638 35079 ft 458 kts 114°
2026-05-07 18:38 51.92697 4.58578 35080 ft 458 kts 114°
2026-05-07 18:39 51.90284 4.68120 35080 ft 458 kts 114°
2026-05-07 18:39 51.87865 4.77648 35090 ft 457 kts 114°
2026-05-07 18:40 51.85438 4.87164 35077 ft 457 kts 114°
2026-05-07 18:40 51.83007 4.96657 35086 ft 457 kts 114°
2026-05-07 18:41 51.80568 5.06140 35081 ft 456 kts 114°
2026-05-07 18:41 51.78127 5.15592 35072 ft 456 kts 114°
2026-05-07 18:42 51.75694 5.24976 35084 ft 455 kts 114°
2026-05-07 18:42 51.73240 5.34398 35075 ft 455 kts 114°
2026-05-07 18:43 51.70782 5.43796 35066 ft 455 kts 114°
2026-05-07 18:43 51.68314 5.53197 35074 ft 455 kts 114°
2026-05-07 18:44 51.65844 5.62567 35070 ft 455 kts 114°
2026-05-07 18:44 51.63360 5.71947 35071 ft 455 kts 115°
2026-05-07 18:45 51.60871 5.81312 35067 ft 455 kts 115°
2026-05-07 18:45 51.58377 5.90655 34916 ft 452 kts 115°
2026-05-07 18:45 51.57137 5.95288 34464 ft 450 kts 115°
2026-05-07 18:46 51.55898 5.99904 33822 ft 449 kts 115°
2026-05-07 18:46 51.54661 6.04508 32978 ft 450 kts 115°
2026-05-07 18:46 51.53413 6.09139 32076 ft 452 kts 115°
2026-05-07 18:46 51.52163 6.13773 31178 ft 454 kts 115°
2026-05-07 18:47 51.50900 6.18451 30309 ft 456 kts 115°
2026-05-07 18:47 51.49645 6.23112 29540 ft 453 kts 114°
2026-05-07 18:47 51.48471 6.27779 28848 ft 448 kts 112°
2026-05-07 18:47 51.47353 6.32424 28166 ft 444 kts 112°
2026-05-07 18:48 51.46247 6.37030 27485 ft 439 kts 112°
2026-05-07 18:48 51.45163 6.41507 26823 ft 435 kts 112°
2026-05-07 18:48 51.44068 6.45986 26453 ft 426 kts 112°
2026-05-07 18:48 51.42976 6.50422 26311 ft 432 kts 112°
2026-05-07 18:49 51.41867 6.54910 26193 ft 433 kts 112°
2026-05-07 18:49 51.40759 6.59379 26092 ft 431 kts 112°
2026-05-07 18:49 51.39652 6.63838 26072 ft 431 kts 112°
2026-05-07 18:49 51.38540 6.68305 26073 ft 431 kts 113°
2026-05-07 18:50 51.37428 6.72768 26071 ft 431 kts 113°
2026-05-07 18:50 51.36317 6.77214 26073 ft 431 kts 113°
2026-05-07 18:50 51.35201 6.81672 26081 ft 431 kts 113°
2026-05-07 18:50 51.34085 6.86123 26077 ft 431 kts 113°
2026-05-07 18:51 51.32965 6.90580 26070 ft 431 kts 113°
2026-05-07 18:51 51.31830 6.95090 26067 ft 431 kts 113°
2026-05-07 18:51 51.30723 6.99475 26074 ft 431 kts 113°
2026-05-07 18:51 51.29601 7.03916 26072 ft 431 kts 113°
2026-05-07 18:52 51.28475 7.08356 26064 ft 431 kts 113°
2026-05-07 18:52 51.27051 7.12541 26064 ft 429 kts 127°
2026-05-07 18:52 51.25030 7.16032 26073 ft 427 kts 142°
2026-05-07 18:52 51.22595 7.18567 26072 ft 424 kts 154°
2026-05-07 18:53 51.19944 7.20660 26077 ft 424 kts 156°
2026-05-07 18:53 51.17320 7.22666 26077 ft 424 kts 156°
2026-05-07 18:53 51.14612 7.24745 26071 ft 424 kts 155°
2026-05-07 18:53 51.12015 7.26763 26065 ft 424 kts 155°
2026-05-07 18:54 51.09495 7.28768 26067 ft 424 kts 154°
2026-05-07 18:54 51.06871 7.30928 26069 ft 424 kts 154°
2026-05-07 18:54 51.04257 7.33098 26075 ft 424 kts 154°
2026-05-07 18:54 51.01640 7.35270 26069 ft 424 kts 154°
2026-05-07 18:55 50.99023 7.37436 26070 ft 424 kts 154°
2026-05-07 18:55 50.96405 7.39595 26072 ft 424 kts 154°
2026-05-07 18:55 50.93785 7.41749 26065 ft 424 kts 154°
2026-05-07 18:55 50.91177 7.43888 25806 ft 422 kts 154°
2026-05-07 18:56 50.88561 7.46031 25081 ft 424 kts 154°
2026-05-07 18:56 50.85917 7.48193 24090 ft 431 kts 154°
2026-05-07 18:56 50.83250 7.50373 23171 ft 430 kts 154°
2026-05-07 18:56 50.80611 7.52527 22069 ft 423 kts 154°
2026-05-07 18:57 50.78014 7.54645 20986 ft 417 kts 154°
2026-05-07 18:57 50.75453 7.56730 19951 ft 412 kts 154°
2026-05-07 18:57 50.72912 7.58796 18974 ft 409 kts 154°
2026-05-07 18:57 50.70397 7.60835 18298 ft 405 kts 154°
2026-05-07 18:58 50.67910 7.62853 17636 ft 399 kts 154°
2026-05-07 18:58 50.65476 7.64825 17173 ft 388 kts 154°
2026-05-07 18:58 50.63104 7.66745 16710 ft 379 kts 154°
2026-05-07 18:58 50.60784 7.68620 16247 ft 371 kts 154°
2026-05-07 18:59 50.58513 7.70453 15814 ft 364 kts 154°
2026-05-07 18:59 50.56254 7.72274 15397 ft 365 kts 154°
2026-05-07 18:59 50.53995 7.74091 14989 ft 363 kts 154°
2026-05-07 18:59 50.51763 7.75885 14595 ft 360 kts 154°
2026-05-07 19:00 50.49536 7.77674 14174 ft 358 kts 154°
2026-05-07 19:00 50.47325 7.79448 13752 ft 356 kts 154°
2026-05-07 19:00 50.45124 7.81213 13321 ft 354 kts 154°
2026-05-07 19:00 50.43009 7.83155 12944 ft 352 kts 146°
2026-05-07 19:01 50.41099 7.85474 12623 ft 351 kts 142°
2026-05-07 19:01 50.39195 7.87859 12385 ft 346 kts 142°
2026-05-07 19:01 50.37349 7.90159 12259 ft 333 kts 142°
2026-05-07 19:01 50.35570 7.92368 12125 ft 319 kts 142°
2026-05-07 19:02 50.33869 7.94475 11998 ft 305 kts 142°
2026-05-07 19:02 50.32254 7.96474 11824 ft 287 kts 142°
2026-05-07 19:02 50.30737 7.98350 11657 ft 270 kts 142°
2026-05-07 19:02 50.29285 8.00143 11262 ft 264 kts 142°
2026-05-07 19:03 50.27850 8.01912 10764 ft 262 kts 142°
2026-05-07 19:03 50.26459 8.03725 10361 ft 256 kts 135°
2026-05-07 19:03 50.25307 8.05867 10217 ft 263 kts 127°
2026-05-07 19:03 50.24205 8.08139 10115 ft 260 kts 128°
2026-05-07 19:04 50.23104 8.10380 10064 ft 261 kts 128°
2026-05-07 19:04 50.21993 8.12630 10062 ft 262 kts 128°
2026-05-07 19:04 50.20881 8.14881 10062 ft 261 kts 128°
2026-05-07 19:04 50.19773 8.17123 10062 ft 261 kts 128°
2026-05-07 19:05 50.18663 8.19369 10068 ft 261 kts 128°
2026-05-07 19:05 50.17552 8.21615 10067 ft 261 kts 128°
2026-05-07 19:05 50.16441 8.23859 10063 ft 261 kts 128°
2026-05-07 19:05 50.15333 8.26097 10065 ft 261 kts 128°
2026-05-07 19:06 50.14218 8.28346 10058 ft 261 kts 128°
2026-05-07 19:06 50.12009 8.32796 10059 ft 261 kts 128°
2026-05-07 19:06 50.10894 8.35041 10062 ft 261 kts 127°
2026-05-07 19:07 50.10136 8.37575 10063 ft 261 kts 99°
2026-05-07 19:07 50.10235 8.40379 10067 ft 261 kts 72°
2026-05-07 19:07 50.10844 8.43042 10065 ft 261 kts 67°
2026-05-07 19:07 50.11527 8.45643 10019 ft 258 kts 66°
2026-05-07 19:08 50.12204 8.48232 9783 ft 257 kts 67°
2026-05-07 19:08 50.12859 8.50821 9435 ft 257 kts 68°
2026-05-07 19:08 50.13492 8.53406 9168 ft 253 kts 68°
2026-05-07 19:08 50.14129 8.56052 9098 ft 273 kts 68°
2026-05-07 19:09 50.14810 8.58903 9076 ft 285 kts 69°
2026-05-07 19:09 50.15498 8.61797 8979 ft 285 kts 69°
2026-05-07 19:09 50.16187 8.64703 8572 ft 287 kts 69°
2026-05-07 19:09 50.16880 8.67630 8208 ft 285 kts 69°
2026-05-07 19:10 50.17559 8.70501 8097 ft 284 kts 69°
2026-05-07 19:10 50.18246 8.73399 8068 ft 285 kts 69°
2026-05-07 19:10 50.18932 8.76293 8070 ft 284 kts 69°
2026-05-07 19:10 50.19617 8.79190 8076 ft 285 kts 69°
2026-05-07 19:11 50.20303 8.82100 7897 ft 286 kts 69°
2026-05-07 19:11 50.20982 8.84988 7642 ft 281 kts 69°
2026-05-07 19:11 50.21658 8.87868 7489 ft 284 kts 69°
2026-05-07 19:11 50.22340 8.90776 7743 ft 286 kts 69°
2026-05-07 19:12 50.23023 8.93693 7995 ft 285 kts 69°
2026-05-07 19:12 50.23701 8.96591 7927 ft 285 kts 69°
2026-05-07 19:12 50.24381 8.99500 7706 ft 282 kts 69°
2026-05-07 19:12 50.25053 9.02376 7483 ft 282 kts 68°
2026-05-07 19:13 50.26022 9.04950 7257 ft 278 kts 44°
2026-05-07 19:13 50.27617 9.06573 7096 ft 274 kts 17°
2026-05-07 19:13 50.29485 9.06850 7072 ft 270 kts 349°
2026-05-07 19:13 50.31204 9.05745 7073 ft 269 kts 322°
2026-05-07 19:14 50.32388 9.03524 7075 ft 269 kts 295°
2026-05-07 19:14 50.32768 9.00690 7074 ft 269 kts 267°
2026-05-07 19:14 50.32359 8.97837 7070 ft 271 kts 253°
2026-05-07 19:14 50.31805 8.95020 7069 ft 270 kts 253°
2026-05-07 19:15 50.31252 8.92217 7070 ft 270 kts 253°
2026-05-07 19:15 50.30696 8.89406 7070 ft 270 kts 253°
2026-05-07 19:15 50.30141 8.86595 7068 ft 270 kts 253°
2026-05-07 19:15 50.29585 8.83787 7066 ft 270 kts 253°
2026-05-07 19:16 50.29029 8.80983 7077 ft 270 kts 253°
2026-05-07 19:16 50.28470 8.78165 7068 ft 270 kts 253°
2026-05-07 19:16 50.27913 8.75363 7079 ft 270 kts 253°
2026-05-07 19:16 50.27353 8.72553 7072 ft 270 kts 253°
2026-05-07 19:17 50.26794 8.69749 7067 ft 270 kts 253°
2026-05-07 19:17 50.26235 8.66943 7072 ft 270 kts 253°
2026-05-07 19:17 50.25677 8.64140 7070 ft 271 kts 253°
2026-05-07 19:17 50.25118 8.61336 7070 ft 270 kts 253°
2026-05-07 19:18 50.24560 8.58531 7072 ft 271 kts 253°
2026-05-07 19:18 50.23999 8.55713 7073 ft 271 kts 253°
2026-05-07 19:18 50.23445 8.52934 7067 ft 271 kts 253°
2026-05-07 19:18 50.22886 8.50126 7072 ft 271 kts 253°
2026-05-07 19:19 50.22329 8.47319 7075 ft 271 kts 253°
2026-05-07 19:19 50.21772 8.44515 7064 ft 271 kts 253°
2026-05-07 19:19 50.21215 8.41710 7062 ft 271 kts 253°
2026-05-07 19:19 50.20656 8.38892 7066 ft 271 kts 253°
2026-05-07 19:20 50.20099 8.36084 7061 ft 271 kts 253°
2026-05-07 19:20 50.19543 8.33280 7073 ft 271 kts 253°
2026-05-07 19:20 50.18986 8.30470 7060 ft 271 kts 253°
2026-05-07 19:20 50.18504 8.27639 7060 ft 270 kts 265°
2026-05-07 19:21 50.18535 8.24713 7070 ft 271 kts 273°
2026-05-07 19:21 50.18639 8.21787 7069 ft 270 kts 273°
2026-05-07 19:21 50.18742 8.18862 7064 ft 270 kts 273°
2026-05-07 19:21 50.18845 8.15942 7061 ft 270 kts 273°
2026-05-07 19:22 50.18947 8.13018 7070 ft 270 kts 273°
2026-05-07 19:22 50.19050 8.10089 7066 ft 270 kts 273°
2026-05-07 19:22 50.19119 8.08152 7065 ft 270 kts 273°
2026-05-07 19:22 50.19223 8.05222 7064 ft 270 kts 273°
2026-05-07 19:23 50.19326 8.02294 7060 ft 270 kts 273°
2026-05-07 19:23 50.19430 7.99371 7080 ft 270 kts 273°
2026-05-07 19:23 50.19536 7.96442 7063 ft 270 kts 273°
2026-05-07 19:23 50.19641 7.93516 7068 ft 270 kts 273°
2026-05-07 19:24 50.19705 7.90584 7058 ft 270 kts 265°
2026-05-07 19:24 50.19124 7.87810 7073 ft 272 kts 238°
2026-05-07 19:24 50.17786 7.85759 7070 ft 274 kts 211°
2026-05-07 19:24 50.15977 7.84884 7063 ft 276 kts 184°
2026-05-07 19:25 50.14058 7.85130 7071 ft 277 kts 173°
2026-05-07 19:25 50.12148 7.85523 7066 ft 277 kts 173°
2026-05-07 19:25 50.10236 7.85915 7052 ft 276 kts 173°
2026-05-07 19:25 50.08338 7.86304 6852 ft 274 kts 173°
2026-05-07 19:26 50.06466 7.86687 6509 ft 274 kts 173°
2026-05-07 19:26 50.04585 7.87072 6171 ft 271 kts 173°
2026-05-07 19:26 50.02707 7.87450 6072 ft 275 kts 173°
2026-05-07 19:26 50.00816 7.87834 6064 ft 273 kts 171°
2026-05-07 19:27 49.99056 7.88869 6068 ft 274 kts 146°
2026-05-07 19:27 49.97544 7.90671 5984 ft 273 kts 135°
2026-05-07 19:27 49.96427 7.93005 5835 ft 265 kts 123°
2026-05-07 19:27 49.95433 7.95338 5717 ft 254 kts 123°
2026-05-07 19:28 49.94461 7.97611 5441 ft 250 kts 123°
2026-05-07 19:28 49.93495 7.99857 5128 ft 249 kts 123°
2026-05-07 19:28 49.92536 8.02068 5009 ft 249 kts 123°
2026-05-07 19:28 49.91854 8.04518 5000 ft 248 kts 98°
2026-05-07 19:29 49.91914 8.07164 4999 ft 246 kts 72°
2026-05-07 19:29 49.92463 8.09678 4993 ft 247 kts 74°
2026-05-07 19:29 49.92827 8.12275 4968 ft 243 kts 77°
2026-05-07 19:29 49.93154 8.14782 4937 ft 233 kts 77°
2026-05-07 19:30 49.93477 8.17274 4912 ft 236 kts 77°
2026-05-07 19:30 49.93800 8.19766 4887 ft 235 kts 77°
2026-05-07 19:30 49.94123 8.22256 4862 ft 235 kts 77°
2026-05-07 19:30 49.94448 8.24711 4837 ft 235 kts 74°
2026-05-07 19:31 49.95048 8.27054 4809 ft 234 kts 63°
2026-05-07 19:31 49.95833 8.29255 4796 ft 233 kts 55°
2026-05-07 19:31 49.96812 8.31248 4795 ft 232 kts 43°